Regional Weather Roundup
Issued by NWS

Home | Current Version | Previous Version | Graphics & Text | Print | Product List | Glossary On
Versions: 1 2 3 4 5 6 7 8 9 10 11 12 13 14 15 16 17 18 19 20 21 22 23 24 25 26 27 28 29 30 31 32 33 34 35 36 37 38 39 40 41 42 43 44 45 46 47 48 49 50
000
ASUS45 KSLC 192210
RWRUT

UTAH REGIONAL WEATHER ROUNDUP
NATIONAL WEATHER SERVICE SALT LAKE CITY UT
400 PM MDT SUN OCT 19 2014

UTZ001>011-023>025-192300-

NORTHERN UTAH

CITY           SKY/WX    TMP DP  RH WIND       PRES   REMARKS
BRIGHAM CITY   SUNNY     71  31  22 CALM      30.05F
HILL AFB       SUNNY     70  36  28 VRB2      30.07F
LOGAN          SUNNY     70  34  26 CALM      30.06F
OGDEN          SUNNY     71  36  27 CALM      30.05F
PROVO AIRPORT  MOSUNNY   66  37  34 SW5       30.05F
SALT LAKE CITY MOSUNNY   72  34  24 NW7       30.03F
VERNAL         SUNNY     68  34  28 VRB3      30.10F
WENDOVER       SUNNY     66  34  30 SE5       30.05F
HEBER CITY     SUNNY     75  30  19 SW6       30.05F
WEST JORDAN    SUNNY     70  46  43 N8        30.06F

$$

UTZ012>022-026-027-192300-

SOUTHERN/CENTRAL UTAH

CITY           SKY/WX    TMP DP  RH WIND       PRES   REMARKS
BLANDING       SUNNY     70  37  30 CALM      30.16S
BRYCE CANYON   SUNNY     63  31  30 CALM      30.18F
CEDAR CITY     SUNNY     73  34  23 NE6       30.05F
DELTA          SUNNY     74  31  20 W3        30.04S
HANKSVILLE       N/A     75  32  20 CALM      30.05S
MILFORD        SUNNY     75  36  24 N10G24    30.03F
MOAB/CYNLANDS  SUNNY     76  35  22 N7        30.01F
PRICE          SUNNY     71  29  21 SE8       30.11F
ST GEORGE      CLEAR     84  37  18 NW6       29.90F

$$

REGIONAL REPORTS     COLORADO/ARIZONA

CITY           SKY/WX    TMP DP  RH WIND       PRES   REMARKS
CRAIG, CO      SUNNY     71  31  22 CALM      30.12F
GRAND JUNCTION SUNNY     75  40  28 W7        30.03F
RIFLE          MOSUNNY   72  33  24 W6        30.07F
MONTROSE       MOSUNNY   73  36  25 VRB3      30.10S
CORTEZ         CLOUDY    68  45  43 CALM      30.09F
PAGE, AZ       NOT AVBL
GRAND CANYON   CLOUDY    66  33  29 NE14      30.12R
KINGMAN        MOSUNNY   82  39  21 VRB3      29.91F
FLAGSTAFF      PTSUNNY   63  36  36 E7        30.13F

$$

REGIONAL REPORTS    NEVADA/IDAHO/WYOMING

CITY           SKY/WX    TMP DP  RH WIND       PRES   REMARKS
LAS VEGAS, NV  MOSUNNY   87  38  17 CALM      29.82F
ELY            CLOUDY    69  33  26 S13       30.08F
ELKO           SUNNY     76  30  18 S15       30.00F
POCATELLO, ID  SUNNY     73  34  23 NE7       30.04F
BURLEY         SUNNY     76  35  22 E9        29.98F
EVANSTON, WY   SUNNY     66  28  24 VRB3      30.17F
ROCK SPRINGS   SUNNY     66  27  23 VRB5      30.16F
KEMMERER       SUNNY     63  25  23 CALM      30.20S

$$


USA.gov is the U.S. government's official web portal to all federal, state and local government web resources and services.